This is the latest recevied weather packets stored in our database for station/object KC0UFP. If no packets are shown the sender has not sent any weather packets the latest 10 day(s).
| Time | Temp. | Humidity | Pressure | Rain* | Wind** | Luminosity | Snow |
|---|---|---|---|---|---|---|---|
| 1777940328 | 24.44° C | 46% | 1007.5 hPa | 0 mm | - | 33 W/m² | - |
| 1777940024 | 24.44° C | 46% | 1007.5 hPa | 0 mm | - | 38 W/m² | - |
| 1777939721 | 24.44° C | 45% | 1007.4 hPa | 0 mm | - | 41 W/m² | - |
| 1777939419 | 24.44° C | 45% | 1007.7 hPa | 0 mm | - | 47 W/m² | - |
| 1777939115 | 25° C | 45% | 1007.8 hPa | 0 mm | - | 52 W/m² | - |
| 1777938813 | 25° C | 44% | 1007.6 hPa | 0 mm | - | 88 W/m² | - |
| 1777938509 | 25° C | 44% | 1007.6 hPa | 0 mm | - | 100 W/m² | - |
| 1777938207 | 25° C | 44% | 1007.8 hPa | 0 mm | - | 112 W/m² | - |
| 1777937903 | 25° C | 43% | 1007.9 hPa | 0 mm | - | 127 W/m² | - |
| 1777937599 | 25.56° C | 43% | 1007.8 hPa | 0 mm | - | 140 W/m² | - |
| 1777937296 | 25.56° C | 43% | 1007.8 hPa | 0 mm | - | 153 W/m² | - |
| 1777936993 | 25.56° C | 43% | 1007.9 hPa | 0 mm | - | 168 W/m² | - |
| 1777936690 | 25.56° C | 42% | 1007.9 hPa | 0 mm | - | 186 W/m² | - |
| 1777936386 | 25.56° C | 43% | 1008 hPa | 0 mm | - | 198 W/m² | - |
| 1777936082 | 25.56° C | 42% | 1007.9 hPa | 0 mm | - | 216 W/m² | - |
| 1777935781 | 25.56° C | 41% | 1008 hPa | 0 mm | - | 233 W/m² | - |
| 1777935479 | 26.11° C | 41% | 1008 hPa | 0 mm | - | 250 W/m² | - |
| 1777935175 | 26.11° C | 41% | 1008.2 hPa | 0 mm | - | 273 W/m² | - |
| 1777934872 | 26.11° C | 41% | 1008.1 hPa | 0 mm | - | 300 W/m² | - |
| 1777934570 | 26.11° C | 41% | 1008 hPa | 0 mm | - | 320 W/m² | - |
| 1777934266 | 26.11° C | 41% | 1008.1 hPa | 0 mm | - | 341 W/m² | - |
| 1777933961 | 26.11° C | 41% | 1007.9 hPa | 0 mm | - | 354 W/m² | - |
| 1777933659 | 26.11° C | 41% | 1008.1 hPa | 0 mm | - | 379 W/m² | - |
| 1777933355 | 26.11° C | 41% | 1008.2 hPa | 0 mm | - | 407 W/m² | - |
| 1777933053 | 26.11° C | 40% | 1008 hPa | 0 mm | - | 420 W/m² | - |
* Rain latest hour (hover to see other rain measurements)
** Current wind speed in m/s (hover to see current wind gust speed)